Date String (YYYY-MM-DD hh:mm:ss) UTC,Instrument flags,absolute air pressure of the measurement (hPa),sample flow rate (lpm),inlet stack bypass flow (lpm),air temperature of the measurement (°C),ambient temperature measured by the external sensor (°C),aerosol sample conditioner tube jacket temperature (°C),OPC LED temperature (°C),internal box temperature (°C),relative humidity of the measurement (%),span deviation,mass concentration of particles derived from Lorenz-Mie calculation of OPC scattering (μg/m³),mass concentration of particles derived from Lorenz-Mie calculation of OPC scattering (μg/m³),mass concentration of particles derived from Lorenz-Mie calculation of OPC scattering (μg/m³)
DateTimeUTC,F1_M11,P_M11,Q1_M11,Q2_M11,T1_M11,T2_M11,T3_M11,T4_M11,T5_M11,U1_M11,ZSPAN_M11,X2_M11,X0_M11,X1_M11
2023-06-11 22:00:00,SystemResetWarning,0831.3,5.00,000.00,029.6,027.4,000.0,038.1,031.0,28.6,0000.0,0004.82,0008.59,0004.45
2023-06-11 22:01:00,SystemResetWarning,0831.3,4.99,000.00,029.6,027.5,000.0,038.1,031.1,28.5,0000.0,0004.83,0008.72,0004.43
2023-06-11 22:02:00,SystemResetWarning,0831.3,5.00,000.00,029.6,027.6,000.0,038.1,031.1,28.6,0000.0,0004.84,0008.32,0004.44
2023-06-11 22:03:00,SystemResetWarning,0831.3,5.00,000.00,029.6,027.8,000.0,038.1,031.1,28.5,0000.0,0004.81,0008.32,0004.43
2023-06-11 22:04:00,SystemResetWarning,0831.3,4.99,000.00,029.6,027.8,000.0,038.1,031.1,28.6,0000.0,0004.78,0008.23,0004.42
2023-06-11 22:05:00,SystemResetWarning,0831.3,5.01,000.00,029.6,027.9,000.0,038.1,031.1,28.7,0000.0,0004.75,0008.17,0004.41
2023-06-11 22:06:00,SystemResetWarning,0831.3,5.00,000.00,029.6,028.0,000.0,038.1,031.1,28.9,0000.0,0004.74,0008.15,0004.39
2023-06-11 22:07:00,SystemResetWarning,0831.3,5.00,000.00,029.6,028.0,000.0,038.1,031.2,29.1,0000.0,0004.70,0008.08,0004.35
2023-06-11 22:08:00,SystemResetWarning,0831.3,5.00,000.00,029.6,028.1,000.0,038.1,031.2,28.6,0000.0,0004.69,0008.78,0004.34
2023-06-11 22:09:00,SystemResetWarning,0831.3,4.98,000.00,029.7,028.1,000.0,038.2,031.2,28.5,0000.0,0004.72,0009.08,0004.35
2023-06-11 22:10:00,SystemResetWarning,0831.3,5.01,000.00,029.7,028.2,000.0,038.2,031.2,28.6,0000.0,0004.75,0009.27,0004.35
2023-06-11 22:11:00,SystemResetWarning,0831.3,5.02,000.00,029.7,028.2,000.0,038.2,031.3,28.3,0000.0,0004.76,0009.31,0004.36
2023-06-11 22:12:00,SystemResetWarning,0831.3,5.00,000.00,029.7,028.2,000.0,038.2,031.3,28.4,0000.0,0004.76,0009.15,0004.34
2023-06-11 22:13:00,SystemResetWarning,0831.3,4.99,000.00,029.7,028.3,000.0,038.2,031.3,28.8,0000.0,0004.73,0009.32,0004.32
2023-06-11 22:14:00,SystemResetWarning,0831.3,5.00,000.00,029.7,028.3,000.0,038.2,031.3,28.7,0000.0,0004.74,0009.67,0004.30
2023-06-11 22:15:00,SystemResetWarning,0831.3,5.01,000.00,029.8,028.3,000.0,038.2,031.3,28.4,0000.0,0004.75,0009.76,0004.29
2023-06-11 22:16:00,SystemResetWarning,0831.3,4.99,000.00,029.8,028.3,000.0,038.2,031.4,28.6,0000.0,0004.76,0009.85,0004.28
2023-06-11 22:17:00,SystemResetWarning,0831.3,4.99,000.00,029.8,028.4,000.0,038.3,031.4,28.3,0000.0,0004.76,0010.37,0004.28
2023-06-11 22:18:00,SystemResetWarning,0831.3,5.01,000.00,029.8,028.4,000.0,038.3,031.4,28.1,0000.0,0004.76,0011.00,0004.30
2023-06-11 22:19:00,SystemResetWarning,0831.3,5.01,000.00,029.8,028.4,000.0,038.3,031.4,28.2,0000.0,0004.74,0010.36,0004.29
2023-06-11 22:20:00,SystemResetWarning,0831.3,5.01,000.00,029.8,028.4,000.0,038.3,031.4,28.1,0000.0,0004.72,0010.10,0004.28
2023-06-11 22:21:00,SystemResetWarning,0831.3,4.99,000.00,029.9,027.5,000.0,038.3,031.5,28.2,0000.0,0004.70,0010.28,0004.27
2023-06-11 22:22:00,SystemResetWarning,0831.3,5.00,000.00,029.9,025.5,000.0,038.2,031.4,28.1,0000.0,0004.69,0010.33,0004.27
2023-06-11 22:23:00,SystemResetWarning,0831.3,5.01,000.00,029.8,025.0,000.0,038.2,031.3,28.2,0000.0,0004.64,0010.19,0004.25
2023-06-11 22:24:00,SystemResetWarning,0831.3,5.01,000.00,029.7,025.3,000.0,038.2,031.1,29.0,0000.0,0004.62,0009.53,0004.24
2023-06-11 22:25:00,SystemResetWarning,0831.3,4.99,000.00,029.6,025.6,000.0,038.2,030.9,28.8,0000.0,0004.59,0009.09,0004.24
2023-06-11 22:26:00,SystemResetWarning,0831.3,4.99,000.00,029.6,026.0,000.0,038.2,030.9,28.9,0000.0,0004.58,0009.11,0004.25
2023-06-11 22:27:00,SystemResetWarning,0831.3,4.99,000.00,029.5,026.4,000.0,038.1,030.9,28.9,0000.0,0004.55,0009.48,0004.24
2023-06-11 22:28:00,SystemResetWarning,0831.3,5.01,000.00,029.5,026.8,000.0,038.1,031.0,29.0,0000.0,0004.54,0009.05,0004.23
2023-06-11 22:29:00,SystemResetWarning,0831.3,5.01,000.00,029.5,027.1,000.0,038.1,031.0,29.0,0000.0,0004.54,0008.43,0004.22
2023-06-11 22:30:00,SystemResetWarning,0831.3,5.00,000.00,029.5,027.3,000.0,038.1,031.0,28.8,0000.0,0004.56,0008.49,0004.23
2023-06-11 22:31:00,SystemResetWarning,0831.3,5.00,000.00,029.5,027.5,000.0,038.1,031.0,28.8,0000.0,0004.56,0008.53,0004.22
2023-06-11 22:32:00,SystemResetWarning,0831.3,4.99,000.00,029.6,027.6,000.0,038.1,031.0,28.8,0000.0,0004.59,0008.31,0004.22
2023-06-11 22:33:00,SystemResetWarning,0831.3,5.00,000.00,029.6,027.7,000.0,038.1,031.1,28.7,0000.0,0004.61,0008.27,0004.22
2023-06-11 22:34:00,SystemResetWarning,0831.3,5.00,000.00,029.6,027.8,000.0,038.1,031.1,28.6,0000.0,0004.64,0008.35,0004.23
2023-06-11 22:35:00,SystemResetWarning,0831.3,4.99,000.00,029.6,027.9,000.0,038.1,031.1,29.0,0000.0,0004.65,0008.35,0004.24
2023-06-11 22:36:00,SystemResetWarning,0831.3,4.99,000.00,029.6,028.0,000.0,038.1,031.2,29.0,0000.0,0004.68,0008.40,0004.25
2023-06-11 22:37:00,SystemResetWarning,0831.3,5.00,000.00,029.6,028.1,000.0,038.1,031.2,29.1,0000.0,0004.66,0008.28,0004.24
2023-06-11 22:38:00,SystemResetWarning,0831.3,5.00,000.00,029.7,028.1,000.0,038.1,031.2,29.0,0000.0,0004.66,0007.85,0004.24
2023-06-11 22:39:00,SystemResetWarning,0831.3,5.01,000.00,029.7,028.2,000.0,038.2,031.2,28.7,0000.0,0004.68,0007.77,0004.25
2023-06-11 22:40:00,SystemResetWarning,0831.3,5.00,000.00,029.7,028.3,000.0,038.2,031.3,28.8,0000.0,0004.69,0007.77,0004.25
2023-06-11 22:41:00,SystemResetWarning,0831.3,5.01,000.00,029.7,028.3,000.0,038.2,031.3,28.8,0000.0,0004.69,0007.69,0004.24
2023-06-11 22:42:00,SystemResetWarning,0831.3,5.01,000.00,029.7,028.4,000.0,038.2,031.3,28.6,0000.0,0004.70,0007.63,0004.26
2023-06-11 22:43:00,SystemResetWarning,0831.3,5.00,000.00,029.8,028.4,000.0,038.2,031.4,28.4,0000.0,0004.67,0007.50,0004.28
2023-06-11 22:44:00,SystemResetWarning,0831.3,4.99,000.00,029.8,028.4,000.0,038.2,031.4,28.3,0000.0,0004.66,0007.42,0004.30
2023-06-11 22:45:00,SystemResetWarning,0831.3,4.99,000.00,029.8,028.4,000.0,038.3,031.4,28.4,0000.0,0004.64,0007.69,0004.30
2023-06-11 22:46:00,SystemResetWarning,0831.4,5.00,000.00,029.8,028.5,000.0,038.3,031.4,28.5,0000.0,0004.66,0007.82,0004.30
2023-06-11 22:47:00,SystemResetWarning,0831.3,5.00,000.00,029.9,028.5,000.0,038.3,031.4,28.5,0000.0,0004.68,0007.85,0004.31
2023-06-11 22:48:00,SystemResetWarning,0831.3,5.00,000.00,029.9,028.5,000.0,038.3,031.5,28.3,0000.0,0004.69,0008.13,0004.32
2023-06-11 22:49:00,SystemResetWarning,0831.3,5.00,000.00,029.9,028.5,000.0,038.3,031.5,28.4,0000.0,0004.75,0008.35,0004.36
2023-06-11 22:50:00,SystemResetWarning,0831.4,5.00,000.00,029.9,028.6,000.0,038.3,031.5,28.1,0000.0,0004.79,0008.40,0004.38
2023-06-11 22:51:00,SystemResetWarning,0831.4,5.00,000.00,030.0,028.6,000.0,038.4,031.5,28.1,0000.0,0004.80,0008.45,0004.40
2023-06-11 22:52:00,SystemResetWarning,0831.3,5.00,000.00,030.0,028.6,000.0,038.4,031.6,28.0,0000.0,0004.82,0008.80,0004.43
2023-06-11 22:53:00,SystemResetWarning,0831.3,4.98,000.00,030.0,027.7,000.0,038.4,031.6,27.9,0000.0,0004.84,0008.90,0004.44
2023-06-11 22:54:00,SystemResetWarning,0831.3,5.00,000.00,030.0,025.7,000.0,038.3,031.5,27.9,0000.0,0004.85,0008.95,0004.44
2023-06-11 22:55:00,SystemResetWarning,0831.3,5.01,000.00,030.0,025.1,000.0,038.3,031.4,28.1,0000.0,0004.87,0008.98,0004.44
2023-06-11 22:56:00,SystemResetWarning,0831.3,5.00,000.00,029.8,025.3,000.0,038.3,031.1,28.3,0000.0,0004.89,0008.77,0004.44
2023-06-11 22:57:00,SystemResetWarning,0831.3,4.98,000.00,029.7,025.7,000.0,038.3,031.0,28.5,0000.0,0004.89,0008.61,0004.43
2023-06-11 22:58:00,SystemResetWarning,0831.3,5.01,000.00,029.7,026.1,000.0,038.3,031.0,28.7,0000.0,0004.86,0008.63,0004.43
2023-06-11 22:59:00,SystemResetWarning,0831.3,5.01,000.00,029.7,026.5,000.0,038.3,031.0,28.8,0000.0,0004.84,0008.34,0004.42
